カタログに戻る

COSMOS 2251 DEB

運用中LEO
NORAD 33844·DEBRIS·🇷🇺 Russia

打ち上げ Jun 16, 1993 から Plesetsk Cosmodrome

Loading…

次のパス (今後24時間)

TLE

最新Source: Space-Track

元期: Sep 14, 2026, 01:01 UTC

1 33844U 93036CM  26257.04267622  .00000546  00000-0  20121-3 0  9998
2 33844  74.0636 269.8930 0049406 225.9226 154.5541 14.34265823916726

AllMySatでCOSMOS 2251 DEBをリアルタイム追跡

Download on the App Store